Temp
-9 -9 -10 -10 -9 -9 -8 -8 -8 -8 -8 -8 -8 -8 -8 -8 -8 -7 -7 -7 -7 -7 -7 -7 -7 -7 -7 -7 -7 -7 -7 -7 -8 -8 -7 -7 -7 -7 -7 -8 -8 -8 -9 -8 -8
-10 -9 -9 -10 -10 -9 -9 -8 -8 -8 -8 -8 -8 -8 -8 -8 -8 -8 -8 -8 -8 -8 -8 -8 -7 -7 -7 -7 -7 -7 -7 -7 -8 -8 -7 -7 -8 -8 -8 -8 -9 -9 -9 -8 -8
-10 -10 -9 -9 -9 -9 -9 -9 -8 -9 -8 -8 -8 -8 -8 -8 -8 -8 -8 -8 -8 -8 -8 -8 -8 -8 -8 -8 -7 -7 -7 -8 -8 -8 -7 -7 -7 -8 -8 -7 -9 -8 -8 -7 -7
-11 -10 -10 -10 -10 -10 -10 -9 -9 -8 -9 -8 -8 -8 -8 -8 -8 -8 -8 -8 -8 -8 -8 -8 -8 -8 -8 -7 -7 -7 -7 -7 -8 -7 -7 -7 -8 -8 -7 -7 -8 -8 -7 -7 -7
-11 -11 -10 -11 -10 -10 -10 -10 -10 -9 -9 -9 -8 -8 -8 -8 -8 -8 -8 -8 -8 -8 -8 -8 -8 -8 -8 -8 -7 -7 -7 -7 -7 -7 -7 -7 -7 -7 -7 -8 -7 -7 -7 -8 -8
-11 -11 -11 -11 -11 -10 -10 -10 -10 -10 -9 -9 -9 -8 -8 -8 -9 -8 -8 -8 -8 -8 -8 -8 -8 -8 -8 -7 -7 -7 -7 -7 -6 -7 -7 -7 -7 -6 -8 -7 -7 -8 -8 -8 -8
-12 -11 -11 -11 -11 -11 -11 -11 -10 -10 -10 -9 -9 -8 -8 -8 -9 -8 -8 -8 -8 -8 -8 -8 -8 -8 -8 -8 -7 -7 -7 -7 -7 -7 -7 -7 -7 -7 -7 -7 -8 -8 -8 -8 -8
-12 -11 -11 -12 -11 -12 -11 -11 -11 -10 -10 -9 -9 -9 -8 -9 -8 -8 -8 -8 -8 -8 -8 -8 -8 -8 -7 -7 -7 -7 -7 -7 -8 -7 -7 -7 -6 -7 -7 -7 -8 -8 -8 -8 -9
-12 -12 -12 -12 -12 -12 -12 -12 -11 -11 -10 -10 -9 -9 -8 -9 -8 -9 -8 -9 -8 -8 -8 -8 -8 -8 -8 -8 -7 -7 -8 -8 -8 -8 -7 -7 -6 -7 -7 -8 -8 -8 -8 -8 -9
-13 -12 -12 -12 -12 -13 -12 -12 -12 -11 -10 -10 -10 -9 -8 -9 -9 -9 -9 -9 -8 -9 -8 -8 -8 -8 -8 -8 -7 -8 -8 -7 -7 -8 -7 -7 -6 -7 -7 -8 -8 -8 -9 -9 -9
-13 -12 -12 -12 -12 -13 -14 -13 -12 -11 -10 -9 -9 -9 -9 -9 -9 -9 -9 -9 -9 -9 -8 -9 -8 -8 -9 -9 -8 -8 -7 -7 -8 -8 -8 -7 -7 -7 -8 -8 -8 -9 -9 -9 -9
-16 -15 -12 -13 -14 -13 -15 -14 -12 -11 -10 -10 -10 -10 -9 -9 -10 -10 -10 -9 -9 -9 -9 -9 -8 -9 -9 -9 -8 -8 -8 -7 -8 -9 -8 -7 -7 -7 -8 -8 -8 -9 -9 -9 -9
-15 -15 -16 -14 -15 -15 -13 -13 -13 -12 -12 -11 -11 -10 -10 -10 -10 -10 -10 -10 -10 -9 -9 -9 -8 -9 -9 -9 -8 -8 -8 -8 -9 -9 -8 -7 -7 -7 -7 -8 -9 -9 -10 -9 -9
-16 -15 -15 -16 -16 -15 -13 -15 -14 -13 -13 -12 -11 -10 -10 -10 -10 -10 -10 -10 -10 -10 -10 -9 -9 -9 -9 -8 -9 -9 -9 -10 -9 -9 -8 -8 -7 -8 -8 -8 -9 -9 -9 -9 -9
-19 -15 -15 -16 -15 -15 -13 -15 -15 -15 -15 -12 -12 -11 -11 -10 -9 -10 -10 -10 -10 -10 -10 -9 -9 -9 -9 -9 -10 -9 -10 -9 -9 -9 -8 -8 -8 -7 -8 -8 -9 -9 -9 -9 -8
-20 -17 -17 -16 -16 -16 -15 -15 -16 -17 -15 -13 -12 -11 -10 -10 -9 -10 -10 -10 -10 -10 -10 -9 -9 -9 -9 -9 -9 -9 -9 -9 -10 -10 -9 -8 -9 -7 -8 -9 -9 -9 -9 -9 -9
-21 -17 -17 -15 -16 -15 -15 -17 -18 -19 -15 -14 -11 -10 -10 -10 -10 -10 -10 -10 -9 -9 -9 -9 -9 -9 -9 -9 -10 -10 -10 -10 -10 -9 -9 -9 -9 -8 -9 -9 -9 -9 -9 -9 -9
-22 -17 -17 -16 -16 -16 -16 -17 -18 -16 -13 -13 -12 -11 -10 -11 -10 -10 -11 -10 -10 -10 -10 -10 -10 -10 -9 -10 -11 -12 -11 -11 -10 -10 -9 -10 -8 -8 -9 -9 -9 -9 -9 -10 -9
-23 -20 -16 -16 -17 -17 -17 -17 -16 -12 -11 -13 -13 -12 -11 -11 -11 -11 -10 -10 -10 -10 -10 -9 -9 -9 -9 -11 -11 -11 -11 -11 -11 -11 -11 -9 -9 -9 -8 -9 -10 -10 -10 -10 -9
-24 -19 -16 -17 -18 -18 -18 -17 -16 -13 -11 -13 -13 -12 -12 -11 -11 -11 -10 -9 -10 -10 -10 -11 -10 -10 -10 -11 -11 -11 -11 -11 -11 -11 -11 -10 -9 -8 -8 -9 -10 -10 -10 -10 -9
-25 -21 -16 -19 -18 -18 -18 -18 -15 -13 -12 -13 -13 -13 -12 -12 -12 -12 -11 -10 -11 -11 -11 -12 -11 -10 -11 -10 -10 -11 -11 -11 -12 -12 -12 -11 -8 -8 -9 -9 -9 -10 -10 -10 -10
-25 -20 -18 -18 -19 -18 -18 -18 -14 -14 -14 -15 -13 -13 -13 -13 -12 -12 -11 -11 -12 -12 -12 -12 -12 -12 -11 -11 -11 -11 -11 -12 -12 -11 -12 -12 -7 -8 -9 -10 -10 -10 -10 -10 -10
-25 -19 -18 -19 -18 -18 -18 -17 -15 -15 -14 -13 -14 -14 -13 -13 -13 -12 -12 -12 -12 -12 -12 -12 -12 -12 -12 -11 -11 -11 -12 -12 -12 -13 -11 -13 -6 -9 -10 -11 -11 -11 -10 -10 -10
-25 -21 -20 -18 -18 -18 -19 -18 -15 -15 -15 -14 -14 -15 -14 -14 -14 -13 -13 -12 -13 -13 -13 -13 -13 -13 -11 -12 -12 -13 -13 -13 -14 -14 -11 -11 -10 -10 -11 -11 -11 -11 -11 -11 -11
-24 -20 -19 -19 -18 -19 -19 -17 -16 -15 -15 -14 -14 -14 -14 -13 -13 -13 -13 -13 -14 -14 -14 -14 -13 -13 -12 -13 -13 -13 -12 -13 -13 -11 -13 -10 -11 -11 -11 -11 -11 -11 -11 -11 -11
-24 -23 -21 -19 -19 -19 -19 -18 -17 -16 -14 -13 -12 -12 -13 -14 -14 -14 -14 -14 -15 -15 -15 -15 -14 -14 -13 -13 -13 -13 -12 -12 -12 -12 -13 -12 -10 -11 -11 -10 -11 -11 -11 -12 -12
-24 -22 -21 -19 -19 -19 -18 -17 -16 -17 -16 -16 -15 -15 -14 -14 -15 -16 -16 -16 -16 -16 -16 -16 -16 -14 -14 -14 -14 -14 -11 -12 -12 -13 -13 -12 -11 -12 -12 -13 -12 -12 -12 -13 -13
Height
5756 5762 5769 5777 5785 5792 5799 5804 5809 5814 5819 5823 5827 5830 5833 5837 5842 5845 5849 5854 5857 5860 5864 5867 5871 5874 5876 5878 5881 5883 5886 5887 5887 5887 5888 5888 5887 5888 5891 5889 5886 5885 5886 5887 5888
5742 5748 5755 5764 5774 5782 5789 5796 5801 5806 5811 5816 5820 5824 5827 5831 5836 5839 5843 5847 5851 5855 5859 5862 5866 5869 5871 5875 5877 5880 5883 5884 5884 5884 5885 5884 5885 5884 5888 5887 5882 5881 5880 5882 5884
5728 5735 5745 5755 5764 5771 5778 5786 5792 5797 5803 5808 5813 5818 5822 5826 5831 5833 5837 5842 5846 5850 5853 5857 5861 5863 5867 5870 5873 5876 5879 5880 5880 5880 5879 5879 5879 5878 5883 5883 5878 5877 5877 5878 5880
5713 5722 5733 5742 5751 5760 5768 5775 5782 5788 5794 5800 5805 5810 5815 5820 5825 5828 5833 5837 5841 5845 5848 5852 5856 5859 5862 5865 5868 5871 5874 5876 5876 5874 5874 5875 5874 5873 5878 5879 5873 5875 5875 5874 5875
5697 5707 5719 5728 5736 5746 5756 5764 5771 5778 5785 5791 5796 5802 5808 5814 5819 5824 5828 5832 5836 5840 5843 5846 5850 5853 5856 5860 5863 5866 5868 5870 5870 5869 5869 5869 5870 5869 5874 5868 5869 5873 5870 5870 5869
5680 5692 5703 5713 5723 5734 5742 5752 5760 5767 5774 5781 5787 5793 5800 5809 5811 5818 5822 5826 5830 5834 5838 5841 5844 5848 5850 5854 5857 5862 5863 5865 5866 5864 5864 5864 5864 5863 5868 5864 5865 5866 5866 5864 5863
5662 5675 5687 5698 5710 5720 5730 5738 5746 5755 5762 5770 5776 5783 5792 5803 5804 5810 5815 5819 5824 5828 5832 5834 5838 5842 5846 5848 5851 5855 5857 5859 5861 5860 5860 5857 5861 5860 5860 5860 5862 5861 5861 5859 5858
5641 5655 5671 5683 5694 5706 5715 5724 5732 5741 5749 5758 5765 5773 5784 5791 5797 5803 5808 5812 5816 5820 5824 5827 5831 5836 5839 5842 5845 5847 5850 5853 5856 5855 5853 5851 5855 5854 5853 5857 5858 5857 5855 5854 5855
5619 5636 5652 5667 5678 5689 5700 5708 5716 5726 5735 5745 5754 5764 5776 5782 5790 5793 5799 5804 5807 5812 5816 5821 5825 5829 5834 5836 5838 5840 5843 5846 5848 5846 5846 5845 5846 5851 5847 5849 5854 5852 5851 5848 5847
5596 5615 5632 5650 5662 5673 5683 5690 5698 5709 5721 5732 5742 5755 5766 5776 5777 5785 5790 5795 5799 5804 5808 5813 5817 5821 5827 5831 5834 5833 5832 5835 5841 5845 5840 5837 5838 5843 5842 5842 5847 5847 5845 5843 5839
5576 5594 5613 5630 5644 5655 5659 5670 5681 5693 5707 5725 5738 5746 5753 5760 5769 5775 5780 5785 5790 5796 5800 5805 5808 5816 5824 5823 5823 5825 5825 5828 5834 5835 5834 5832 5830 5834 5835 5836 5840 5840 5839 5834 5830
5555 5573 5593 5611 5627 5636 5640 5658 5683 5691 5699 5708 5719 5731 5739 5748 5758 5763 5770 5777 5782 5787 5792 5797 5800 5812 5813 5814 5815 5816 5819 5822 5825 5825 5823 5825 5824 5825 5828 5830 5832 5832 5830 5823 5821
5531 5552 5575 5594 5609 5614 5629 5656 5664 5672 5680 5693 5705 5716 5726 5733 5745 5754 5761 5766 5773 5778 5783 5786 5796 5798 5801 5805 5807 5811 5810 5814 5813 5814 5814 5813 5812 5818 5824 5822 5824 5825 5818 5815 5812
5510 5536 5564 5576 5583 5601 5618 5640 5650 5658 5660 5672 5686 5699 5709 5719 5732 5744 5750 5757 5760 5769 5773 5774 5781 5788 5793 5797 5799 5801 5805 5803 5803 5801 5806 5808 5793 5808 5817 5816 5817 5818 5812 5808 5807
5491 5517 5542 5556 5573 5585 5617 5626 5636 5638 5636 5661 5671 5683 5697 5707 5729 5731 5741 5743 5751 5758 5764 5772 5776 5779 5781 5788 5790 5793 5793 5794 5795 5795 5794 5797 5794 5787 5804 5806 5808 5810 5806 5803 5800
5476 5499 5525 5541 5553 5580 5599 5607 5611 5602 5609 5635 5652 5669 5685 5700 5709 5718 5722 5731 5739 5744 5750 5756 5761 5767 5775 5778 5780 5782 5782 5785 5788 5786 5782 5786 5789 5773 5783 5793 5796 5796 5799 5794 5792
5460 5478 5504 5518 5545 5570 5578 5576 5576 5569 5613 5622 5644 5663 5679 5690 5695 5702 5711 5718 5728 5734 5743 5750 5754 5759 5765 5767 5769 5771 5775 5776 5777 5774 5772 5777 5772 5768 5768 5782 5784 5788 5787 5783 5783
5444 5463 5484 5512 5535 5553 5554 5551 5545 5563 5599 5622 5639 5653 5664 5674 5678 5688 5697 5707 5717 5724 5732 5734 5741 5747 5758 5761 5761 5763 5764 5766 5761 5764 5765 5763 5752 5756 5764 5769 5776 5777 5776 5774 5772
5437 5445 5469 5500 5517 5531 5531 5523 5527 5569 5605 5615 5626 5635 5645 5658 5668 5676 5685 5699 5709 5717 5724 5725 5729 5738 5745 5745 5749 5752 5751 5758 5754 5752 5749 5747 5748 5751 5753 5759 5761 5763 5764 5762 5762
5423 5438 5464 5492 5499 5514 5510 5515 5534 5573 5596 5598 5607 5620 5633 5647 5654 5665 5672 5688 5696 5704 5709 5712 5718 5725 5730 5731 5737 5739 5741 5741 5741 5741 5738 5736 5737 5738 5745 5748 5749 5752 5751 5750 5749
5416 5421 5458 5476 5487 5488 5484 5500 5546 5563 5576 5587 5600 5608 5622 5633 5646 5654 5667 5679 5689 5697 5697 5702 5707 5713 5715 5720 5728 5727 5727 5729 5729 5729 5726 5725 5727 5734 5732 5738 5740 5738 5738 5738 5738
5407 5418 5449 5460 5463 5468 5477 5495 5541 5546 5556 5571 5590 5598 5610 5625 5631 5642 5655 5670 5674 5681 5683 5695 5693 5699 5703 5706 5709 5711 5715 5714 5710 5716 5717 5715 5713 5726 5722 5725 5726 5727 5727 5728 5728
5401 5418 5437 5445 5450 5462 5476 5499 5514 5523 5542 5561 5577 5587 5599 5609 5620 5633 5646 5657 5660 5666 5671 5676 5676 5684 5690 5692 5692 5694 5701 5706 5704 5702 5705 5696 5701 5712 5715 5715 5715 5714 5716 5717 5718
5393 5404 5420 5429 5446 5462 5474 5486 5501 5519 5536 5554 5563 5578 5589 5597 5610 5624 5632 5640 5646 5653 5655 5657 5660 5668 5675 5682 5683 5682 5685 5688 5685 5684 5690 5687 5693 5697 5697 5700 5702 5702 5703 5706 5707
5382 5394 5407 5419 5437 5454 5466 5482 5494 5502 5523 5540 5549 5566 5581 5589 5598 5607 5618 5626 5631 5637 5639 5640 5645 5655 5664 5663 5665 5668 5671 5671 5668 5676 5670 5685 5680 5683 5684 5686 5687 5690 5692 5693 5693
5381 5393 5405 5422 5435 5448 5458 5471 5490 5502 5518 5534 5550 5560 5566 5575 5586 5597 5603 5611 5617 5621 5623 5626 5632 5638 5642 5648 5648 5647 5653 5658 5659 5661 5659 5666 5669 5673 5673 5673 5676 5679 5680 5679 5678
5376 5391 5405 5421 5432 5442 5455 5474 5490 5502 5514 5531 5541 5546 5555 5567 5575 5582 5586 5591 5598 5605 5609 5612 5617 5623 5626 5631 5628 5622 5646 5643 5648 5649 5652 5652 5663 5660 5661 5665 5666 5666 5665 5662 5663
Wind_Speed
69 68 67 66 64 61 60 55 50 47 44 42 39 40 40 42 44 41 38 37 35 34 33 32 30 29 30 28 25 23 21 21 22 24 26 27 27 26 23 25 27 26 25 23 23
72 72 71 69 67 64 62 60 55 50 47 44 41 40 40 42 43 40 39 37 36 35 34 33 32 32 31 29 26 24 22 22 24 26 27 28 29 28 25 24 29 29 29 26 25
78 75 72 71 70 68 65 63 60 55 50 47 44 41 41 42 42 41 39 37 36 35 35 34 34 34 32 30 27 24 22 24 24 27 27 30 29 30 25 24 31 32 32 29 26
82 80 75 74 72 70 68 66 63 60 55 51 48 45 42 43 43 40 38 37 37 37 36 35 34 33 33 30 29 25 24 24 24 25 26 28 30 32 25 25 32 31 30 31 27
83 83 80 77 75 73 71 69 66 63 59 55 52 49 47 43 41 39 39 38 37 37 36 35 34 34 33 31 29 25 25 23 22 25 26 26 28 31 26 31 31 27 29 28 27
85 86 84 82 78 77 73 71 70 67 64 60 56 54 51 45 45 41 41 40 38 38 36 35 35 34 34 31 30 26 25 24 20 24 26 28 29 31 24 30 29 30 27 27 28
90 88 88 86 82 78 76 73 72 71 68 65 61 58 55 48 48 46 44 42 41 39 38 37 37 35 33 33 30 28 26 24 25 26 25 33 30 30 30 27 27 29 26 27 30
95 93 90 90 86 82 79 75 74 74 71 69 66 62 57 54 52 50 48 46 45 43 42 40 39 37 35 34 31 31 30 28 24 28 33 36 32 31 31 30 30 29 29 28 30
101 98 95 92 89 85 82 79 77 77 75 73 70 66 60 56 55 54 52 50 49 47 45 43 41 40 37 36 35 33 32 28 28 32 35 35 35 29 33 32 32 33 34 34 35
106 101 99 94 94 90 86 84 81 79 79 75 74 69 65 58 59 57 56 55 54 52 50 47 45 43 40 35 33 34 37 36 31 28 33 37 37 33 34 36 32 33 36 39 43
105 107 103 98 98 95 92 90 88 84 81 77 73 70 68 65 62 60 59 58 57 55 53 49 49 43 36 37 40 40 40 37 29 31 34 36 41 39 34 36 33 35 35 44 48
110 109 106 104 99 98 98 93 85 83 81 80 77 74 72 68 64 62 61 60 58 56 54 53 50 40 40 41 42 42 40 37 33 31 37 40 46 40 38 37 38 38 40 46 44
108 116 107 99 101 101 101 91 89 85 84 81 77 76 73 72 67 64 61 60 59 58 55 54 49 47 46 43 43 42 43 38 38 37 39 44 51 44 40 42 37 38 42 44 45
98 110 88 97 104 102 101 94 91 87 87 86 83 79 77 75 70 65 62 62 62 58 56 58 55 50 47 45 44 44 40 39 39 45 43 44 62 51 43 41 39 38 44 41 41
85 109 92 86 97 106 100 96 92 89 90 90 86 83 78 77 70 67 63 63 61 59 59 56 53 52 52 47 45 44 43 43 44 45 48 58 60 60 43 42 44 39 38 36 39
79 116 102 98 97 95 96 97 94 94 98 95 90 85 80 77 75 69 69 66 63 62 61 60 58 56 51 48 48 47 48 44 44 46 59 57 55 56 51 45 44 49 36 38 35
76 111 98 94 94 92 92 101 96 96 97 96 91 85 79 76 76 74 70 69 67 65 63 60 57 55 53 51 49 47 46 42 45 51 61 60 62 59 59 48 47 44 41 40 36
70 114 87 88 91 104 88 93 106 110 102 94 89 85 82 78 78 75 71 71 67 63 62 62 60 56 51 51 50 43 45 46 54 59 60 61 69 63 57 51 46 45 46 40 38
69 96 96 89 81 85 75 91 111 107 97 94 89 87 86 81 77 75 73 70 66 62 61 63 62 58 55 52 48 47 49 49 52 56 62 70 68 61 55 52 53 49 45 40 39
62 104 98 87 70 74 85 96 87 100 92 95 94 89 87 84 80 78 77 72 68 65 63 65 63 60 57 56 52 53 51 55 56 59 65 71 70 65 57 54 56 51 44 39 39
48 92 96 81 61 83 88 88 93 90 91 93 94 91 86 82 79 75 72 71 67 65 62 60 60 60 60 59 53 51 56 60 59 61 66 74 69 66 62 56 54 43 39 38 38
45 77 94 82 75 86 85 79 90 102 92 93 93 92 90 81 80 78 75 70 67 62 60 57 56 58 61 61 58 56 60 61 67 70 71 76 64 56 57 54 44 40 39 39 40
42 88 85 87 84 74 81 79 87 99 100 90 90 92 91 87 83 79 76 73 69 68 66 63 65 63 61 63 67 71 66 65 68 68 73 69 52 52 53 47 43 46 45 42 43
43 84 90 89 77 75 82 80 85 93 95 90 82 86 89 88 84 81 78 76 72 69 65 63 63 65 66 65 64 66 67 67 68 67 60 55 44 42 44 41 41 43 43 45 46
53 83 88 77 80 72 77 81 83 89 91 84 82 85 85 88 88 85 84 82 75 70 68 69 70 68 67 68 71 73 72 70 67 57 56 40 42 40 41 44 46 46 48 51 54
54 47 75 69 64 67 74 75 76 81 86 87 80 77 81 86 86 86 88 86 76 70 70 72 72 69 71 70 74 70 65 60 54 54 51 45 44 43 45 50 52 53 54 56 58
46 53 58 67 55 68 67 61 71 76 74 69 70 71 74 75 76 80 82 81 75 72 72 70 68 67 68 64 61 62 55 56 56 56 53 51 45 47 48 47 51 56 56 56 56
Wind_Direction
229 228 227 229 228 227 229 229 229 230 232 233 231 228 226 225 220 218 222 224 224 226 225 227 227 228 231 235 238 242 244 252 258 266 274 279 283 288 294 298 298 300 294 293 296
228 228 228 226 228 228 228 230 229 230 231 233 231 229 225 224 220 216 219 221 222 222 222 223 225 229 233 236 240 245 247 252 260 265 273 280 283 286 293 294 291 288 288 293 297
229 227 228 229 227 228 227 228 229 230 230 232 231 229 226 224 221 216 218 218 219 220 222 224 226 231 234 236 239 242 247 253 262 268 274 278 281 284 287 289 280 283 295 299 304
227 228 226 228 228 229 229 228 228 229 229 229 230 228 225 223 221 218 217 219 221 222 224 226 229 233 236 237 238 240 249 253 259 266 271 275 278 280 287 284 278 288 298 304 308
228 227 227 227 227 226 228 229 229 228 229 229 229 229 225 222 223 220 221 223 223 224 225 228 230 232 236 239 243 243 245 248 253 265 271 276 276 280 293 278 286 303 307 304 301
229 227 226 227 226 227 226 228 229 229 228 229 228 229 227 221 223 218 219 222 222 224 227 229 232 235 238 242 245 244 246 251 257 268 275 279 276 285 279 275 292 305 305 303 299
229 227 226 226 226 225 226 226 227 229 229 228 228 228 227 224 223 221 221 222 225 227 229 232 236 237 240 243 246 249 252 255 257 267 277 281 285 285 275 273 295 302 296 295 297
227 226 225 225 224 225 225 225 226 228 229 229 228 227 225 226 226 226 224 226 226 228 231 234 238 239 240 244 246 251 254 256 266 269 272 278 289 280 281 280 291 290 289 294 293
227 224 225 224 224 224 225 223 224 227 227 228 228 227 224 226 228 228 227 228 230 230 234 238 240 242 241 244 249 255 264 267 258 261 271 282 287 273 273 278 291 290 291 288 291
226 222 222 221 223 223 224 224 222 224 226 227 228 227 226 225 228 228 229 231 232 234 236 239 243 243 244 248 257 260 259 259 264 270 275 279 286 280 270 276 289 286 294 292 289
220 223 220 219 221 222 222 224 221 222 224 227 229 228 228 226 227 229 230 232 235 237 240 243 244 245 250 251 253 256 262 267 272 271 272 279 284 284 268 276 284 285 287 294 289
215 220 220 219 219 221 223 222 225 226 225 226 227 227 229 228 227 228 231 233 235 240 244 245 246 247 248 250 254 258 263 270 269 269 272 275 278 280 269 275 280 291 291 294 289
216 218 219 221 216 220 223 220 224 224 223 224 225 227 228 229 227 229 231 235 237 238 243 247 247 244 246 248 254 260 265 270 271 268 272 278 279 277 278 279 279 295 294 292 288
218 213 205 215 216 219 220 220 221 224 226 222 223 224 227 228 229 229 232 235 237 239 240 243 245 249 252 252 253 259 268 268 269 272 277 280 284 282 285 276 279 288 291 284 284
218 198 201 210 218 216 218 219 219 223 226 223 221 223 223 228 229 231 232 235 238 241 244 247 248 250 251 254 255 259 263 266 269 274 282 280 282 287 276 275 275 287 294 285 283
215 205 205 206 210 215 219 218 218 223 222 223 222 222 224 226 228 227 231 232 235 238 241 243 246 248 252 253 256 261 262 264 270 274 278 281 289 279 279 278 284 293 300 289 283
213 202 192 189 201 209 216 215 217 223 218 222 222 223 224 226 230 230 231 235 236 239 243 246 249 252 253 254 259 263 268 272 273 272 277 281 286 279 278 284 289 297 301 290 281
210 202 187 190 202 211 212 216 218 221 217 220 224 224 224 225 226 230 233 235 236 239 242 245 245 249 254 260 262 261 262 263 270 275 276 274 279 281 277 282 292 297 296 286 278
211 213 186 181 178 196 212 214 222 224 224 220 221 225 225 227 227 230 235 236 237 240 245 248 250 253 254 256 258 263 264 269 267 265 268 276 283 289 283 288 290 292 291 276 268
223 198 184 179 172 187 205 215 222 224 226 221 221 225 227 226 229 230 233 235 237 239 240 244 248 251 253 253 256 262 262 262 261 263 269 274 281 285 283 284 289 294 284 268 265
228 210 181 188 177 187 199 216 217 223 227 224 223 223 227 227 231 233 235 239 242 242 244 247 249 252 254 257 259 259 264 264 265 264 269 275 281 288 279 284 290 283 271 267 266
213 208 182 182 194 193 198 208 215 223 225 226 224 225 227 229 232 234 237 238 240 242 246 251 253 253 255 255 253 253 256 258 261 269 279 280 276 274 278 286 280 274 273 274 273
213 198 188 182 193 203 199 200 209 217 223 227 226 226 228 230 233 233 236 239 241 244 246 249 251 253 251 253 253 254 260 265 271 274 275 270 274 275 275 271 273 274 269 274 278
210 203 197 205 206 206 208 201 208 215 222 227 225 226 228 230 233 236 238 239 241 242 247 248 249 250 254 259 262 264 265 269 272 267 267 264 270 268 266 257 263 265 270 273 271
200 200 198 203 204 204 203 202 207 212 216 225 229 229 232 234 232 235 237 239 241 245 246 249 253 255 256 259 262 264 267 268 264 263 255 260 260 262 258 256 256 260 263 265 267
206 203 214 200 200 204 201 201 204 212 220 224 229 234 234 235 237 241 243 239 243 244 249 252 255 259 258 260 264 262 262 257 251 250 253 256 259 259 260 259 261 264 268 269 266
202 204 205 189 190 200 198 199 204 211 218 224 228 231 231 233 237 241 242 240 241 247 249 254 257 259 263 259 258 252 252 253 253 247 253 260 265 257 256 263 266 269 267 265 264